Weather History for Middletown, PA

Change the Weather History Date:

Monday, November 21, 2011

  Actual Average Record
Temperature  
Mean Temperature 50 °F 42 °F  
Max Temperature 53 °F 51 °F 74 °F (1900)
Min Temperature 46 °F 33 °F 19 °F (1951)
Degree Days  
Heating Degree Days 15 23  
Month to date heating degree days 375 403  
Since 1 July heating degree days 758 815  
Cooling Degree Days 0 0  
Month to date cooling degree days 0 0  
Year to date cooling degree days 1246 1002  
Moisture  
Dew Point 46 °F    
Average Humidity 87    
Maximum Humidity 100    
Minimum Humidity 74    
Precipitation  
Precipitation 0.14 in 0.11 in 1.78 in (1952)
Month to date precipitation 1.37 2.16  
Year to date precipitation 67.34 36.44  
Snow  
Snow 0.00 in - - ()
Month to date snowfall 0.0  
Since 1 July snowfall 5.5  
Since 1 September snowfall 5.5  
Snow Depth 0.00 in    
Sea Level Pressure  
Sea Level Pressure 30.22 in    
Wind  
Wind Speed 3 mph (NNW)    
Max Wind Speed 10 mph    
Max Gust Speed -    
Visibility 5 miles    
Events Fog , Rain    
T = Trace of Precipitation, MM = Missing Value Source: NWS Daily Summary

Daily Weather History Graph

Daily Weather History Graph

Search for Another Location

Airport:

Trip Planner

Search our weather history database for the weather conditions in past years. The results will help you decide how hot, cold, wet, or windy it might be!

Date:

Astronomy

Nov. 21, 2011 Rise Set
Actual Time 6:59 AM EST 4:46 PM EST
Civil Twilight 6:29 AM EST 5:15 PM EST
Nautical Twilight 5:56 AM EST 5:48 PM EST
Astronomical Twilight 5:24 AM EST 6:21 PM EST
Moon 2:34 AM EST (11/21) 2:07 PM EST (11/21)
Length of Visible Light 10h 46m
Length of Day
9h 47m
Waning Crescent, 18% of the Moon is Illuminated
Nov 21
Waning Crescent
Nov 25
New
Dec 2
First Quarter
Dec 10
Full
Dec 17
Last Quarter

Hourly Weather History & Observations

Time (EST) Temp. Windchill Dew Point Humidity Pressure Visibility Wind Dir Wind Speed Gust Speed Precip Events Conditions
12:44 AM 50.0 °F - 50.0 °F 100% 30.15 in 2.5 mi West 3.5 mph - 0.01 in Rain Light Rain
12:56 AM 50.0 °F - 50.0 °F 100% 30.14 in 2.0 mi Calm Calm - 0.02 in Fog , Rain Light Rain
1:56 AM 50.0 °F - 50.0 °F 100% 30.14 in 2.0 mi Calm Calm - 0.02 in Fog , Rain Light Rain
2:56 AM 48.9 °F - 48.9 °F 100% 30.14 in 1.0 mi Calm Calm - 0.03 in Fog , Rain Light Rain
3:09 AM 50.0 °F - 48.2 °F 94% 30.13 in 0.8 mi Calm Calm - 0.00 in Fog , Rain Light Rain
3:21 AM 50.0 °F - 50.0 °F 100% 30.12 in 0.5 mi Calm Calm - N/A Fog Fog
3:56 AM 50.0 °F - 48.9 °F 96% 30.14 in 0.2 mi East 3.5 mph - 0.00 in Fog , Rain Light Rain
4:07 AM 50.0 °F - 50.0 °F 100% 30.13 in 0.5 mi Calm Calm - 0.00 in Fog , Rain Light Rain
4:34 AM 50.0 °F - 48.2 °F 94% 30.15 in 0.2 mi Calm Calm - 0.00 in Fog Fog
4:56 AM 50.0 °F - 50.0 °F 100% 30.14 in 0.5 mi NW 4.6 mph - 0.00 in Fog Fog
5:30 AM 51.8 °F - 51.8 °F 100% 30.17 in 0.5 mi NW 8.1 mph - N/A   Overcast
5:54 AM 51.8 °F - 51.8 °F 100% 30.17 in 3.0 mi WNW 6.9 mph - N/A   Overcast
5:56 AM 51.1 °F - 51.1 °F 100% 30.18 in 3.0 mi WNW 6.9 mph - N/A   Overcast
6:04 AM 51.8 °F - 51.8 °F 100% 30.18 in 3.0 mi WNW 6.9 mph - N/A   Overcast
6:51 AM 53.6 °F - 50.0 °F 88% 30.21 in 6.0 mi NNE 3.5 mph - N/A   Overcast
6:56 AM 53.1 °F - 48.9 °F 86% 30.22 in 7.0 mi NE 3.5 mph - N/A   Overcast
7:05 AM 51.8 °F - 48.2 °F 88% 30.22 in 7.0 mi NE 4.6 mph - N/A   Overcast
7:56 AM 51.1 °F - 46.0 °F 83% 30.25 in 9.0 mi NNE 6.9 mph - N/A   Overcast
8:56 AM 50.0 °F - 44.1 °F 80% 30.28 in 10.0 mi NE 6.9 mph - N/A   Overcast
9:56 AM 50.0 °F - 43.0 °F 77% 30.29 in 10.0 mi NNE 5.8 mph - N/A   Overcast
10:56 AM 50.0 °F - 42.1 °F 74% 30.30 in 10.0 mi North 3.5 mph - N/A   Overcast
11:20 AM 50.0 °F - 41.0 °F 71% 30.28 in 10.0 mi NE 5.8 mph - 0.00 in Rain Light Rain
11:56 AM 50.0 °F - 42.1 °F 74% 30.27 in 10.0 mi Calm Calm - 0.00 in   Overcast
12:20 PM 50.0 °F - 41.0 °F 71% 30.25 in 10.0 mi Calm Calm - N/A   Overcast
12:38 PM 50.0 °F - 42.8 °F 76% 30.24 in 10.0 mi Calm Calm - N/A   Overcast
12:56 PM 48.9 °F - 43.0 °F 80% 30.25 in 10.0 mi Calm Calm - 0.00 in Rain Light Rain
1:56 PM 48.9 °F - 43.0 °F 80% 30.25 in 10.0 mi Calm Calm - 0.00 in   Overcast
2:29 PM 48.2 °F - 42.8 °F 82% 30.24 in 6.0 mi WNW 5.8 mph - 0.01 in Rain Light Rain
2:56 PM 48.0 °F - 43.0 °F 83% 30.26 in 7.0 mi West 6.9 mph - 0.01 in Rain Light Rain
3:56 PM 48.0 °F - 44.1 °F 86% 30.27 in 7.0 mi NW 6.9 mph - 0.00 in Rain Light Rain
4:56 PM 48.0 °F - 44.1 °F 86% 30.27 in 8.0 mi Calm Calm - 0.00 in   Overcast
5:56 PM 46.0 °F 42.5 °F 45.0 °F 96% 30.30 in 3.0 mi NW 6.9 mph - 0.05 in Rain Light Rain
6:56 PM 46.0 °F 44.8 °F 45.0 °F 96% 30.29 in 4.0 mi WNW 3.5 mph - 0.00 in Rain Light Rain
7:56 PM 46.0 °F 44.8 °F 45.0 °F 96% 30.28 in 4.0 mi WNW 3.5 mph - 0.00 in   Overcast
8:20 PM 46.4 °F - 44.6 °F 93% 30.28 in 5.0 mi Calm Calm - N/A   Overcast
8:56 PM 46.0 °F - 44.1 °F 93% 30.28 in 3.0 mi Calm Calm - 0.00 in Rain Light Rain
9:56 PM 46.0 °F - 45.0 °F 96% 30.28 in 5.0 mi Calm Calm - 0.00 in Rain Light Rain
10:56 PM 46.0 °F - 45.0 °F 96% 30.29 in 4.0 mi Calm Calm - 0.00 in   Overcast
11:56 PM 46.0 °F - 45.0 °F 96% 30.28 in 2.5 mi Calm Calm - 0.00 in Rain Light Rain